• Join FlightAware (Why Join?)
  • Login
  • US Flag 
05:22PM EST


 

Airport Tracker/Info


-or-


 

Live Flight TrackerFlight Track Log ✈ EJM826 ✈ 28-May-2014 ✈ KHOU - KIAH

Flight Track Log - Related Links

Times and Time Zones

All times are in EDT time to prevent confusion due to time zone crossing. See the EJM826 flight status page for this flight to view local times or setup timezone preferences in your user account.

Time Position Orientation Groundspeed Altitude Reporting Facility
EDT Latitude Longitude Course Direction KTS MPH feet Rate Location/Type
12:14PM 29.6356 -95.2675 45° Northeast 168 193 700  Level Houston Center
12:19PM 29.8476 -95.0193 North 221 254 3,600 409 Climbing FlightAware ADS-B (KHOU)
12:19PM 29.8644 -95.0175 North 246 283 3,000 -2,357 Descending FlightAware ADS-B (KHOU)
12:20PM 29.8793 -95.0160 North 248 285 2,500 -1,543 Descending FlightAware ADS-B (KHOU)
12:20PM 29.9040 -95.0137 North 239 275 2,100 -714 Descending FlightAware ADS-B (KHOU)
12:20PM 29.9250 -95.0121 North 215 247 2,000 -154 Descending FlightAware ADS-B (KHOU)
12:21PM 29.9404 -95.0110 North 193 222 2,000  Level FlightAware ADS-B (KHOU)
12:21PM 29.9482 -95.0107 359° North 182 209 2,000  Level FlightAware ADS-B (KHOU)
12:21PM 29.9520 -95.0114 349° North 178 205 2,000  Level FlightAware ADS-B (KHOU)
12:21PM 29.9561 -95.0135 330° Northwest 177 204 2,000  Level FlightAware ADS-B (KHOU)
12:21PM 29.9591 -95.0165 318° Northwest 179 206 2,000  Level FlightAware ADS-B (KHOU)
12:21PM 29.9615 -95.0206 303° West 181 208 2,000  Level FlightAware ADS-B (KHOU)
12:21PM 29.9632 -95.0248 294° West 182 209 2,000  Level FlightAware ADS-B (KHOU)
12:22PM 29.9697 -95.0428 292° West 185 213 2,000  Level FlightAware ADS-B (KHOU)
12:22PM 29.9737 -95.0574 285° West 186 214 2,000  Level FlightAware ADS-B (KHOU)
12:22PM 29.9759 -95.0714 278° West 185 213 2,000  Level FlightAware ADS-B (KHOU)
12:22PM 29.9770 -95.0864 274° West 185 213 2,000  Level FlightAware ADS-B (KHOU)
12:23PM 29.9773 -95.1002 271° West 185 213 2,000  Level FlightAware ADS-B (KHOU)
12:23PM 29.9775 -95.1210 271° West 184 212 2,000  Level FlightAware ADS-B (KHOU)
12:23PM 29.9775 -95.1288 271° West 185 213 2,000  Level FlightAware ADS-B
12:24PM 29.9772 -95.1595 269° West 180 207 2,000  Level FlightAware ADS-B (KHOU)
12:24PM 29.9772 -95.1790 271° West 181 208 2,000  Level FlightAware ADS-B (KHOU)
12:24PM 29.9773 -95.1933 270° West 174 200 2,000 -207 Level FlightAware ADS-B (KHOU)
12:24PM 29.9773 -95.2064 271° West 170 196 1,900 -800 Descending FlightAware ADS-B (KHOU)
12:25PM 29.9774 -95.2201 271° West 171 197 1,600 -1,000 Descending FlightAware ADS-B (KHOU)
12:25PM 29.9774 -95.2335 271° West 163 188 1,400 -968 Descending FlightAware ADS-B (KHOU)
12:25PM 29.9776 -95.2461 271° West 153 176 1,100 -968 Descending FlightAware ADS-B (KHOU)
12:25PM 29.9776 -95.2580 270° West 142 163 900 -828 Descending FlightAware ADS-B (KHOU)
12:26PM 29.9776 -95.2692 271° West 135 155 700 -800 Descending FlightAware ADS-B (KHOU)
12:26PM 29.9776 -95.2795 270° West 132 152 500 -581 Descending FlightAware ADS-B (KHOU)
12:26PM 29.9776 -95.2900 270° West 130 150 400 -621 Descending FlightAware ADS-B (KHOU)
12:26PM 29.9777 -95.3007 271° West 130 150 200 -214 Descending FlightAware ADS-B (KHOU)
12:27PM 29.9767 -95.3175 271° West 146 168 200  Level Houston Center